User: anonymous   Login
Location: Albany
(35.0000°S, 118.0000°E)
Time: 14:14:04
(UTC-04:00)
Language:

Cosmos 1346 Rocket - Orbit

View from above orbital plane
View from above orbital plane
View from above satellite
View from above satellite

Ground track
Ground track

The orbit data is extracted from the following two-line orbital elements,

1 13121U 82027B   15115.16578795  .00003028  00000-0  20047-3 0  9997
2 13121 081.1651 299.0485 0026744 236.1093 123.7587 15.06765300798848
Epoch (UTC): 25 April 2015 03:58:44
Eccentricity: 0.0026744
inclination: 81.1651°
perigee height: 527 km
apogee height: 564 km
right ascension of ascending node: 299.0485°
argument of perigee: 236.1093°
revolutions per day: 15.06765300
mean anomaly at epoch: 123.7587°
orbit number at epoch: 79884

The dashed part of the orbit path shows where the satellite is in the earth's shadow,  

DLR